#timestamp,LO_Frequency,Hit,StdDev 
1504368015.0,286046999.1,N,1.3
1504368015.9,286046999.1,N,1.3
1504368035.7,286046998.7,N,1.3
1504368055.6,286046998.7,N,1.2
1504368075.4,286046998.6,N,1.1
1504368095.3,286046998.3,N,1.1
1504368115.1,286046998.7,N,1.0
1504368135.8,286046998.5,N,1.0
1504368155.7,286046998.3,N,0.9
1504368175.5,286047001.1,N,0.9
1504368195.4,286047001.1,N,1.0
1504368215.2,286047000.6,N,1.0
1504368235.0,286047001.0,N,1.0
1504368235.9,286047001.0,N,1.1
1504368255.8,286047001.0,N,1.1
1504368275.6,286047000.3,N,1.1
1504368295.5,286047000.1,N,1.1
1504368315.3,286047002.6,N,1.2
1504368335.1,286047002.5,N,1.3
1504368355.9,286047002.2,N,1.4
1504368375.7,286047000.4,N,1.4
1504368395.5,286046999.8,N,1.4
1504368415.4,286047000.2,N,1.3
1504368435.2,286047000.1,N,1.3
1504368455.1,286046999.7,N,1.3
1504368456.0,286046999.7,N,1.3
1504368475.8,286047002.5,N,1.4
1504368495.6,286047002.6,N,1.4
1504368515.5,286047002.1,N,1.4
1504368535.3,286047001.8,N,1.4
1504368555.2,286047001.5,N,1.4
1504368575.9,286047002.1,N,1.4
1504368595.7,286047001.9,N,1.4
1504368615.6,286047003.2,N,1.4
1504368635.4,286047004.4,Y,0.0
1504368655.3,286047002.5,P,0.9
1504368675.1,286047001.5,N,0.7
1504368676.0,286047001.5,N,0.6
1504368695.8,286047001.9,Y,0.0
1504368715.7,286047002.8,P,0.6
1504368735.5,286047002.0,P,0.5
1504368755.4,286047001.9,P,0.5
1504368775.2,286047001.9,Y,0.0
1504368795.0,286047000.9,P,0.6
1504368795.9,286047000.9,N,0.6
1504368815.8,286047000.9,N,0.5
1504368835.6,286047000.6,N,0.5
1504368855.4,286047000.4,N,0.5
1504368875.3,286047000.5,N,0.5
1504368895.1,286047000.8,N,0.5
1504368915.9,286047000.9,N,0.5
1504368935.7,286047000.6,N,0.4
1504368955.5,286047000.9,N,0.4
1504368975.4,286047000.0,N,0.5
1504368995.2,286047000.8,N,0.4
1504369015.1,286047000.7,N,0.4
1504369016.0,286047000.7,N,0.4
1504369035.8,286047000.6,N,0.4
1504369055.6,286047000.0,N,0.4
1504369075.5,286046999.7,N,0.5
1504369095.3,286047000.5,N,0.5
1504369115.2,286047002.7,Y,0.0
1504369135.9,286047000.3,P,0.2
1504369155.7,286047000.8,P,0.2
1504369175.6,286047001.2,P,0.3
1504369195.4,286047000.0,N,0.4
1504369215.3,286047000.6,N,0.4
1504369235.1,286046999.9,N,0.4
1504369236.0,286046999.9,N,0.4
1504369255.8,286047002.8,Y,0.0
1504369275.7,286047001.0,P,0.3
1504369295.5,286047000.0,N,0.4
1504369315.4,286046999.8,N,0.5
1504369335.2,286047000.1,N,0.4
1504369355.0,286047002.7,Y,0.0
1504369355.9,286047002.7,P,1.2
1504369375.8,286047000.7,N,1.1
1504369395.6,286046998.4,N,1.5
1504369415.5,286047001.2,N,1.4
1504369435.3,286047000.5,N,1.3
1504369455.4,286047000.6,N,1.2
1504369475.3,286047000.4,N,1.1
1504369495.1,286047001.2,N,1.1
1504369515.8,286047001.2,N,1.0
1504369535.7,286046998.2,N,1.2
1504369555.5,286047000.6,N,1.2
1504369575.4,286046998.1,N,1.3
1504369595.2,286047001.0,N,1.3
1504369615.0,286047000.3,N,1.2
1504369615.9,286047000.3,N,1.2
1504369635.8,286047000.3,N,1.1
1504369655.6,286047000.8,N,1.1
1504369675.5,286047000.1,N,1.1
1504369695.3,286047002.8,N,1.2
1504369715.1,286047000.5,N,1.2
1504369735.9,286047000.9,N,1.1
1504369755.7,286047002.7,N,1.2
1504369775.5,286047002.8,N,1.2
1504369795.4,286047002.5,N,1.3
1504369815.2,286047002.6,N,1.3
1504369835.1,286047002.7,N,1.3
1504369836.0,286047002.7,N,1.3
1504369855.8,286047002.3,N,1.3
1504369875.6,286047002.2,N,1.3
1504369895.5,286047001.9,N,1.3
1504369915.3,286047001.9,N,1.3
1504369935.2,286047001.7,N,1.3
1504369955.9,286047004.2,Y,0.0
1504369975.7,286047004.4,P,1.6
1504369995.6,286047002.5,N,1.3
1504370015.4,286047002.0,N,1.2
1504370035.3,286047002.1,N,1.1
1504370055.1,286047002.6,N,1.0
1504370056.0,286047002.6,N,0.9
1504370075.8,286047000.1,N,1.2
1504370095.7,286046999.9,N,1.3
1504370115.5,286047011.9,Y,0.0
1504370135.4,286046998.3,P,1.8
1504370155.2,286047000.4,N,1.5
1504370175.0,286047001.0,N,1.3
1504370175.9,286047001.0,N,1.2
1504370195.8,286047000.3,N,1.1
1504370215.6,286047001.1,N,1.1
1504370235.4,286047001.1,N,1.0
1504370255.3,286047000.0,N,1.0
1504370275.1,286047000.5,N,0.9
1504370295.9,286047000.9,N,0.9
1504370315.7,286047000.8,N,0.8
1504370335.5,286047000.6,N,0.8
1504370355.4,286047000.2,N,0.8
1504370375.2,286047000.4,N,0.8
1504370395.1,286047000.3,N,0.7
1504370396.0,286047000.3,N,0.7
1504370415.8,286047001.1,N,0.7
1504370435.6,286046998.6,N,0.8
1504370455.5,286046998.1,N,1.0
1504370475.3,286047000.6,N,0.9
1504370495.1,286047000.3,N,0.9
1504370515.9,286046999.9,N,0.9
1504370535.7,286047000.8,N,0.9
1504370555.6,286047000.6,N,0.9
1504370575.4,286046998.4,N,0.9
1504370595.2,286046998.6,N,1.0
1504370615.1,286046998.4,N,1.0
1504370616.0,286046998.4,N,1.0
1504370635.8,286047001.1,N,1.0
1504370655.7,286047000.5,N,1.0
1504370675.5,286047000.0,N,0.9
1504370695.3,286046999.8,N,0.9
1504370715.2,286047002.8,N,1.0
1504370735.0,286046999.8,N,1.0
1504370735.9,286046999.8,N,1.0
1504370755.8,286046998.1,N,1.1
1504370775.6,286046998.4,N,1.1
1504370795.4,286047001.1,N,1.1
1504370815.3,286047001.2,N,1.1
1504370835.1,286046999.9,N,1.1
1504370855.8,286046999.9,N,1.1
1504370875.7,286047002.4,N,1.2
1504370895.5,286047002.1,N,1.2
1504370915.4,286046998.2,N,1.3
1504370935.2,286047000.9,N,1.3
1504370955.0,286047000.9,N,1.3
1504370955.9,286047000.9,N,1.3
1504370975.8,286047001.0,N,1.3
1504370995.6,286047001.0,N,1.2
1504371015.5,286046998.2,N,1.3
1504371035.3,286047000.7,N,1.3
1504371055.1,286047000.0,N,1.3
1504371075.9,286047000.9,N,1.3
1504371095.7,286047000.8,N,1.3
1504371115.5,286047000.8,N,1.3
1504371135.4,286047000.6,N,1.2
1504371155.2,286046998.2,N,1.2
1504371175.1,286047000.0,N,1.2
1504371176.0,286047000.0,N,1.2
1504371195.8,286047000.2,N,1.2
1504371215.6,286047002.4,N,1.2
1504371235.5,286047002.8,N,1.3
1504371255.3,286047002.7,N,1.3
1504371275.2,286046999.8,N,1.3
1504371295.9,286046999.7,N,1.3
1504371315.7,286046999.9,N,1.2
1504371335.6,286046998.2,N,1.2
1504371355.4,286047001.1,N,1.2
1504371375.3,286046998.3,N,1.3
1504371395.1,286047000.7,N,1.3
1504371415.8,286047000.2,N,1.3
1504371435.7,286047002.7,N,1.3
1504371455.5,286046999.7,N,1.3
1504371475.4,286047000.2,N,1.2
1504371495.2,286047002.4,N,1.3
1504371515.0,286047000.9,N,1.3
1504371515.9,286047000.9,N,1.3
1504371535.8,286047002.3,N,1.3
1504371555.6,286047002.0,N,1.3
1504371575.5,286047002.6,N,1.3
1504371595.3,286047000.2,N,1.3
